Regional Weather Roundup
Issued by NWS Kansas City/Pleasant Hill, MO

Home | Current Version | Previous Version | Text Only | Print | Product List | Glossary On
Versions: 1 2 3 4 5 6 7 8 9 10 11 12 13 14 15 16 17 18 19 20 21 22 23 24 25 26 27 28 29 30 31 32 33 34 35 36 37 38 39 40 41 42 43 44 45 46 47 48 49 50
000
ASUS43 KEAX 160311
RWREAX

WEATHER ROUNDUP FOR EASTERN KANSAS AND NORTHWEST MISSOURI
NATIONAL WEATHER SERVICE KANSAS CITY/PLEASANT HILL MO
1000 PM CDT MON SEP 15 2014

KSZ040-057-103>105-MOZ028-029-037-043-160400-
...KANSAS CITY METROPOLITAN AREA...

CITY           SKY/WX    TMP DP  RH WIND       PRES   REMARKS
K.C. INTL      CLEAR     53  50  89 N7        30.23R
K.C. DOWNTOWN  CLEAR     57  50  77 NE6       30.23R
LEES SUMMIT    MOCLDY    57  51  80 NE7       30.23R
OLATHE - IXD   CLEAR     57  50  77 NE7       30.24R
OLATHE - OJC   CLEAR     57  50  77 NE6       30.22R
LAWRENCE       CLEAR     55  49  80 NE3       30.24R

$$

MOZ001>008-011>017-020>025-030>033-038>040-044>046-053-054-160400-
...NORTHERN AND CENTRAL MISSOURI...

CITY           SKY/WX    TMP DP  RH WIND       PRES   REMARKS
ST. JOSEPH     PTCLDY    53  50  89 N7        30.25R
MOSBY          CLEAR     54  50  87 CALM      30.23R
WARRENSBURG    CLOUDY    57  50  77 N7        30.22S
WHITEMAN AFB   PTCLDY    59  53  80 N10       30.19S
CLINTON        CLOUDY    63  57  82 CALM      30.20R
SEDALIA        CLOUDY    61  54  77 N13       30.21R
WARSAW         NOT AVBL
MARSHALL       CLOUDY    61  54  77 N6        30.22S
CHILLICOTHE      N/A     52  49  89 CALM      30.24R
MOBERLY        CLOUDY    59  52  77 N7        30.21R
KIRKSVILLE     CLOUDY    54  51  90 N8        30.23R

$$

MOZ041-047>049-056>058-063>065-088>090-097-160400-
...EASTERN AND SOUTHERN MISSOURI...

CITY           SKY/WX    TMP DP  RH WIND       PRES   REMARKS
ST. LOUIS INTL CLOUDY    63  59  87 N7        30.15R
SPIRIT OF STL  CLOUDY    63  59  87 N3        30.15R
COLUMBIA       CLOUDY    62  58  86 N14       30.18R
JEFFERSON CITY CLOUDY    65  59  81 CALM      30.17R
MEXICO         CLOUDY    63  63 100 N8        30.18
ROLLA          CLOUDY    63  57  81 NE7       30.16R
LEBANON        CLOUDY    66  61  82 N10       30.19R
OSAGE BEACH    CLOUDY    64  57  77 NE3       30.18R
SPRINGFIELD    CLOUDY    72  65  78 N12       30.16R
BRANSON        CLOUDY    73  66  78 NW6       30.16R
NEVADA         CLOUDY    64  61  88 NE5       30.19R
JOPLIN         CLOUDY    68  66  93 NE8       30.17R
WEST PLAINS    CLOUDY    72  67  84 NE6       30.15R

$$

IAZ060-094-KSZ022-034>040-054-083-096-NEZ052-066-093-160400-
...KANSAS...SOUTHEAST NEBRASKA AND IOWA...

CITY           SKY/WX    TMP DP  RH WIND       PRES   REMARKS
TOPEKA         CLEAR     56  52  86 N3        30.24R
MANHATTAN      CLEAR     58  50  75 N6        30.24R
EMPORIA        MOCLDY    60  53  77 NE14      30.22R
CHANUTE        CLOUDY    68  59  73 NE10      30.19R
WICHITA        MOCLDY    68  57  68 NE9       30.20R
OMAHA          CLEAR     53  49  86 CALM      30.27R
LINCOLN        CLEAR     52  45  77 N3        30.27R
FALLS CITY     CLEAR     52  47  83 N3        30.25R
LAMONI         CLEAR     50  47  89 NW3       30.24S
DES MOINES     PTCLDY    53  46  77 N6        30.24S

$$




USA.gov is the U.S. government's official web portal to all federal, state and local government web resources and services.